Weather History for KTTN - September, 2012

Change the Weather History Date:

Tuesday, September 18, 2012

  Actual Average Record
Temperature  
Mean Temperature 73 °F 66 °F  
Max Temperature 78 °F 75 °F 90 °F (1965)
Min Temperature 67 °F 56 °F 39 °F (1986)
Degree Days  
Heating Degree Days 0 2  
Month to date heating degree days 7 14  
Since 1 July heating degree days 7 17  
Cooling Degree Days 8 3  
Month to date cooling degree days 103 81  
Year to date cooling degree days 1200 937  
Growing Degree Days 22 (Base 50)    
Moisture  
Dew Point 67 °F    
Average Humidity 80    
Maximum Humidity 93    
Minimum Humidity 67    
Precipitation  
Precipitation 0.69 in 0.15 in 2.38 in (1936)
Month to date precipitation 2.05 2.37  
Year to date precipitation 27.28 33.35  
Sea Level Pressure  
Sea Level Pressure 29.76 in    
Wind  
Wind Speed 12 mph (SSW)    
Max Wind Speed 32 mph    
Max Gust Speed 43 mph    
Visibility 8 miles    
Events Rain    
T = Trace of Precipitation, MM = Missing Value Source: NWS Daily Summary

Daily Weather History Graph

Daily Weather History Graph

Search for Another Location

Airport or City:

Trip Planner

Search our weather history database for the weather conditions in past years. The results will help you decide how hot, cold, wet, or windy it might be!

Date:

Astronomy

Sep. 18, 2012 Rise Set
Actual Time 6:43 AM EDT 7:02 PM EDT
Civil Twilight 6:16 AM EDT 7:29 PM EDT
Nautical Twilight 5:44 AM EDT 8:01 PM EDT
Astronomical Twilight 5:11 AM EDT 8:33 PM EDT
Moon 9:40 AM EDT (9/18) 8:23 PM EDT (9/18)
Length of Visible Light 13h 13m
Length of Day
12h 18m
Waxing Crescent, 9% of the Moon is Illuminated
Sep 18
Waxing Crescent
Sep 22
First Quarter
Sep 29
Full
Oct 8
Last Quarter
Oct 15
New

Hourly Weather History & Observations

Time (EDT) Temp. Dew Point Humidity Pressure Visibility Wind Dir Wind Speed Gust Speed Precip Events Conditions
12:53 AM 68.0 °F 61.0 °F 78% 29.99 in 10.0 mi South 4.6 mph - N/A   Overcast
1:53 AM 68.0 °F 61.0 °F 78% 29.97 in 10.0 mi South 6.9 mph - N/A   Overcast
2:53 AM 68.0 °F 62.1 °F 81% 29.94 in 10.0 mi South 6.9 mph - N/A   Overcast
3:30 AM 68.0 °F 64.4 °F 88% 29.94 in 10.0 mi South 8.1 mph - 0.00 in Rain Light Rain
3:53 AM 68.0 °F 64.0 °F 87% 29.91 in 10.0 mi South 5.8 mph - 0.00 in   Overcast
4:39 AM 66.2 °F 64.4 °F 94% 29.91 in 3.0 mi South 9.2 mph - 0.06 in Rain Light Rain
4:53 AM 66.9 °F 66.0 °F 97% 29.88 in 2.5 mi South 9.2 mph - 0.15 in Rain Rain
5:01 AM 68.0 °F 66.2 °F 94% 29.90 in 4.0 mi SSW 9.2 mph - 0.02 in Rain Rain
5:37 AM 68.0 °F 66.2 °F 94% 29.89 in 7.0 mi South 8.1 mph - 0.04 in Rain Light Rain
5:45 AM 68.0 °F 66.2 °F 94% 29.88 in 6.0 mi South 9.2 mph - 0.05 in Rain Light Rain
5:53 AM 68.0 °F 66.0 °F 93% 29.86 in 5.0 mi South 10.4 mph - 0.06 in Rain Light Rain
6:35 AM 69.8 °F 66.2 °F 88% 29.87 in 9.0 mi South 9.2 mph 19.6 mph 0.01 in Rain Light Rain
6:53 AM 70.0 °F 66.9 °F 90% 29.85 in 10.0 mi South 9.2 mph - 0.01 in   Overcast
7:28 AM 69.8 °F 66.2 °F 88% 29.86 in 10.0 mi South 11.5 mph - 0.01 in   Overcast
7:53 AM 70.0 °F 66.9 °F 90% 29.84 in 10.0 mi South 10.4 mph 18.4 mph 0.01 in   Overcast
8:10 AM 71.6 °F 68.0 °F 88% 29.85 in 10.0 mi SSW 12.7 mph - N/A   Overcast
8:40 AM 71.6 °F 68.0 °F 88% 29.84 in 10.0 mi South 13.8 mph - N/A   Overcast
8:51 AM 71.6 °F 68.0 °F 88% 29.83 in 10.0 mi South 11.5 mph 21.9 mph N/A   Overcast
8:53 AM 72.0 °F 68.0 °F 87% 29.82 in 10.0 mi SSW 13.8 mph 19.6 mph N/A   Overcast
9:53 AM 73.0 °F 69.1 °F 87% 29.79 in 10.0 mi South 13.8 mph 19.6 mph N/A   Overcast
10:53 AM 73.9 °F 69.1 °F 85% 29.77 in 10.0 mi SSW 18.4 mph 26.5 mph 0.00 in   Overcast
11:53 AM 75.9 °F 69.1 °F 79% 29.73 in 10.0 mi South 18.4 mph 31.1 mph 0.00 in   Overcast
12:01 PM 75.2 °F 68.0 °F 78% 29.75 in 10.0 mi SSW 18.4 mph 25.3 mph N/A   Overcast
12:53 PM 75.9 °F 68.0 °F 76% 29.71 in 10.0 mi SSW 18.4 mph 25.3 mph 0.00 in   Overcast
1:53 PM 78.1 °F 68.0 °F 71% 29.68 in 10.0 mi SSW 21.9 mph 33.4 mph 0.00 in   Overcast
2:53 PM 78.1 °F 66.9 °F 68% 29.64 in 10.0 mi SSW 24.2 mph 34.5 mph N/A   Overcast
3:53 PM 75.9 °F 68.0 °F 76% 29.64 in 10.0 mi SSW 21.9 mph 29.9 mph 0.00 in Rain Light Rain
4:53 PM 75.9 °F 69.1 °F 79% 29.62 in 10.0 mi SSW 18.4 mph 40.3 mph 0.00 in   Overcast
5:33 PM 75.2 °F 69.8 °F 83% 29.64 in 7.0 mi SSW 25.3 mph 34.5 mph 0.02 in Rain Light Rain
5:49 PM 75.2 °F 69.8 °F 83% 29.63 in 10.0 mi SSW 21.9 mph 32.2 mph 0.02 in   Overcast
5:53 PM 75.0 °F 69.1 °F 82% 29.61 in 10.0 mi SSW 21.9 mph 34.5 mph 0.02 in   Overcast
6:30 PM 73.4 °F 69.8 °F 88% 29.66 in 2.5 mi West 24.2 mph 33.4 mph 0.09 in Rain Heavy Rain
6:33 PM 73.4 °F 69.8 °F 88% 29.66 in 3.0 mi West 17.3 mph 33.4 mph 0.10 in Rain Rain
6:40 PM 71.6 °F 68.0 °F 88% 29.65 in 3.0 mi WSW 15.0 mph 27.6 mph 0.15 in Rain Heavy Rain
6:51 PM 69.8 °F 66.2 °F 88% 29.67 in 8.0 mi SSW 11.5 mph - 0.16 in Rain Light Rain
6:53 PM 70.0 °F 66.9 °F 90% 29.66 in 8.0 mi SSW 11.5 mph - 0.17 in Rain Light Rain
7:04 PM 69.8 °F 66.2 °F 88% 29.68 in 8.0 mi WSW 12.7 mph - 0.00 in Rain Light Rain
7:49 PM 68.0 °F 66.2 °F 94% 29.69 in 6.0 mi SW 5.8 mph - 0.07 in Rain Rain
7:53 PM 68.0 °F 66.9 °F 96% 29.67 in 5.0 mi WSW 6.9 mph - 0.08 in Rain Rain
8:53 PM 68.0 °F 66.0 °F 93% 29.66 in 5.0 mi WSW 3.5 mph - 0.15 in Rain Rain
9:05 PM 68.0 °F 66.2 °F 94% 29.68 in 5.0 mi South 4.6 mph - 0.03 in Rain Rain
9:17 PM 68.0 °F 66.2 °F 94% 29.68 in 9.0 mi South 3.5 mph - 0.04 in Rain Light Rain
9:30 PM 68.0 °F 66.2 °F 94% 29.69 in 10.0 mi SSW 6.9 mph - 0.04 in   Mostly Cloudy
9:53 PM 68.0 °F 66.0 °F 93% 29.70 in 10.0 mi SW 8.1 mph - 0.04 in   Overcast
10:26 PM 68.0 °F 66.2 °F 94% 29.73 in 10.0 mi WSW 5.8 mph - N/A   Mostly Cloudy
10:40 PM 68.0 °F 66.2 °F 94% 29.73 in 10.0 mi WSW 5.8 mph - N/A   Overcast
10:53 PM 68.0 °F 66.0 °F 93% 29.72 in 10.0 mi WSW 8.1 mph - N/A   Mostly Cloudy
11:09 PM 68.0 °F 64.4 °F 88% 29.75 in 10.0 mi SW 9.2 mph - N/A   Mostly Cloudy
11:49 PM 68.0 °F 64.4 °F 88% 29.76 in 10.0 mi West 4.6 mph - N/A   Overcast
11:53 PM 68.0 °F 64.9 °F 90% 29.75 in 10.0 mi WSW 4.6 mph - N/A   Mostly Cloudy